Location: Antoign�
(47.0844°N, 0.1131°W)
Time: 00:34:45
(UTC+00:00)

Cosmos 1500 - Pass Details

Date: 03 March 2021
Orbit: 499 x 517 km, 82.5° (Epoch: 14 April)

Event Time Altitude Azimuth Distance (km) Brightness Sun altitude
Rises 18:47:04 0° 174° (S) 2,579 6.7 -10.7°
Reaches altitude 10° 18:49:12 10° 169° (S) 1,700 5.7 -11.0°
Maximum altitude 18:52:48 48° 94° (E) 660 3.3 -11.7°
Drops below altitude 10° 18:56:25 10° 20° (NNE) 1,715 5.7 -12.3°
Sets 18:58:35 0° 15° (NNE) 2,605 6.7 -12.6°
